CST,Max TemperatureF,Mean TemperatureF,Min TemperatureF,Max Dew PointF,MeanDew PointF,Min DewpointF,Max Humidity, Mean Humidity, Min Humidity, Max Sea Level PressureIn, Mean Sea Level PressureIn, Min Sea Level PressureIn, Max VisibilityMiles, Mean VisibilityMiles, Min VisibilityMiles, Max Wind SpeedMPH, Mean Wind SpeedMPH, Max Gust SpeedMPH,PrecipitationIn, CloudCover, Events, WindDirDegrees
2014-1-1,9,-1,-11,-4,-9,-18,76,58,46,30.43,30.37,30.33,10,10,10,10,4,,0.00,7,,10
2014-1-2,12,1,-10,-4,-8,-16,76,58,40,30.40,30.35,30.30,10,10,4,12,6,,0.00,3,,353
2014-1-3,19,2,-15,11,-5,-22,76,68,57,30.38,30.07,29.67,10,10,10,18,5,28,0.00,2,,175
2014-1-4,32,22,13,27,14,2,80,67,60,30.11,29.79,29.56,10,10,7,15,11,21,0.00,4,Snow,259
2014-1-5,12,3,-7,2,-11,-20,62,53,41,30.22,30.13,30.05,10,10,10,15,8,22,0.00,2,,317
2014-1-6,-7,-12,-18,-20,-27,-34,61,52,43,30.12,30.08,30.03,10,10,7,18,14,28,0.00,3,,281
2014-1-7,3,-6,-16,-10,-18,-26,67,58,47,30.24,30.13,30.07,10,10,10,18,9,23,0.00,0,,255
2014-1-8,9,-2,-13,-8,-13,-20,74,62,46,30.47,30.36,30.23,10,10,10,10,3,,0.00,1,,270
2014-1-9,17,-1,-19,11,-9,-27,75,66,44,30.48,30.32,30.09,10,10,10,8,1,,0.00,3,,151
2014-1-10,34,26,17,32,26,11,93,88,75,30.07,29.79,29.42,10,3,1,10,4,,0.13,8,Rain-Snow,143
2014-1-11,34,32,30,32,28,25,94,85,78,29.68,29.48,29.38,10,8,0,9,3,,0.00,8,Fog-Snow,276
2014-1-12,41,34,27,31,27,24,87,76,57,29.71,29.58,29.47,10,9,4,,,,0.00,4,,-1
2014-1-13,39,30,22,32,26,15,83,72,56,29.68,29.55,29.47,10,10,10,,,,0.00,5,,-1
2014-1-14,29,24,18,26,20,11,89,84,73,29.88,29.63,29.48,10,4,0,,,,0.13,8,Snow,-1
2014-1-15,18,15,12,10,7,4,76,70,62,30.02,29.90,29.59,10,10,5,,,,0.00,6,Snow,-1
2014-1-16,32,22,12,29,17,6,88,75,69,29.65,29.48,29.37,10,8,2,17,8,25,0.00,8,Rain-Snow,265
2014-1-17,26,16,5,17,11,-1,81,73,64,29.90,29.79,29.65,10,7,2,12,8,17,0.00,7,Snow,296
2014-1-18,18,10,1,10,3,-3,84,78,68,29.86,29.82,29.73,10,10,7,6,2,,0.00,3,,298
2014-1-19,36,24,13,27,20,10,86,73,59,29.71,29.53,29.41,10,10,7,16,9,22,0.00,6,,257
2014-1-20,23,13,2,20,5,-9,86,67,49,30.25,29.96,29.63,10,8,1,14,6,24,0.00,6,Snow,27
2014-1-21,7,0,-7,-9,-12,-15,71,60,42,30.33,30.24,30.09,10,10,10,13,6,18,0.00,1,,294
2014-1-22,9,2,-4,0,-6,-13,77,64,49,30.14,29.97,29.85,10,6,2,18,6,29,0.00,6,Snow,273
2014-1-23,10,1,-8,-6,-10,-18,67,58,45,30.51,30.41,30.15,10,10,3,17,11,25,0.00,1,,286
2014-1-24,29,10,-9,24,4,-18,82,66,53,30.34,29.72,29.34,10,9,2,20,10,26,0.00,7,Snow,222
2014-1-25,30,15,0,21,-3,-13,77,52,41,29.77,29.60,29.32,10,8,0,21,13,31,0.00,3,Snow,289
2014-1-26,16,9,2,8,0,-10,79,67,53,29.76,29.48,29.31,10,5,1,23,6,32,0.00,7,Snow,262
2014-1-27,3,-4,-11,-8,-20,-25,59,51,40,30.30,30.14,29.78,10,9,1,23,14,29,0.00,0,Snow,279
2014-1-28,3,-6,-15,-13,-18,-24,65,55,42,30.30,30.19,30.04,10,10,10,18,11,25,0.00,0,,256
2014-1-29,24,11,-2,10,-5,-13,62,52,36,30.05,29.94,29.72,10,10,10,16,12,21,0.00,0,,225
2014-1-30,30,21,12,25,15,2,86,67,49,29.90,29.64,29.47,10,8,0,16,11,22,0.00,5,Snow,215
2014-1-31,11,0,-12,0,-10,-19,77,61,46,30.14,30.06,29.91,10,10,10,10,6,,0.00,0,,268